FENGYUN 1C DEB

Satellite information

Favourite Embed

Satellite Type and Status

DEBRISIN ORBIT

Key statistics

Satellite FENGYUN 1C DEB at a glance.

Uptime

9497

Days in orbit

Revolutions

≈ 14.2

Per day

Orbit

SSO

Sun Synchronous Orbit

Inclination

99.2

Latest

Satellite identification and parameters

Extended collection of information and parameters for FENGYUN 1C DEB.

Object identification

Identified? True

Debris? True

Object name: FENGYUN 1C DEB

International designator: 1999-025BCB

Object number (NORAD): 30985

Object ID (CCSDS): 30985

Country: PEOPLES REPUBLIC OF CHINA (PRC)

Current information (Y/N): Y

RCS size: SMALL

Orbital parameters

Period: 101.091 minutes

Inclination: 99.2394 deg

SMA: 7188.469 km

Apoapsis: 843.709 km

Periapsis: 776.96 km

RAAN: 172.1595 deg

Eccentricy: 0.0046428

Argument of periapsis: 154.2145 deg

Mean anomaly: 332.3771 deg

Mean motion: 14.24453 rev/day

Mean motion (dot): 0.00018848 rev/day2

B* drag term: 0.0080467 1/REarth

Two-line elements (TLE)

Creation date: April 9, 2025, 5:16 p.m.

Reference frame: TEME

Reference center: EARTH

Epoch: Oct. 12, 2024, 11:42 a.m. UTC

TLE line 0: 0 FENGYUN 1C DEB

TLE line 1: 1 30985U 99025BCB 24286.48758192 .00018848 00000-0 80467-2 0 9992

TLE line 2: 2 30985 99.2394 172.1595 0046428 154.2145 332.3771 14.24453000905013

Live tracking on map

Real-time ground track for satellite FENGYUN 1C DEB.

In-orbit conjunctions

A list of the most updated potential collisions computed for object FENGYUN 1C DEB.

Target Orbit TCA Probability of collision Miss distance Type
METEOR M2-3 DEB SSO 2024-10-23 05:11:08 0.000149851 559.0 (m) DEBRIS
SL-3 R/B LEO 2024-06-27 05:31:40 0.000346363 159.0 (m) ROCKET BODY

Associated space launch

Chinese polar orbiting meteorological satellite

FENGYUN 1C DEB was lifted into orbit during the mission ‘Long March 4B | Feng Yun 1C’, on board a Long March 4B space rocket.

The launch took place on May 10, 1999, 1:33 a.m. from Launch Complex 7.

For more information about the launch, click the button.

Launch to space Long March 4B | Feng Yun 1C
Long March 4B | Feng Yun 1C

Agency: N/A

Status: Launch Successful

Launch date: May 10, 1999, 1:33 a.m. UTC

Rocket: Long March 4B

Launch pad: Launch Complex 7

Location: Taiyuan Satellite Launch Center, People's Republic of China

...

Latest news about this satellite

There are no fresh news available about this satellite. Check back as we update our databases every day.


Newsletter sign-up

Weekly statistics, charts and insights to help you stay on top of the space industry.